Location: Hurstbourne Priors
(51.2000°N, 1.3667°W)
Time: 20:24:28
(UTC+00:00)

Transit 4A - Pass Details

Date: 24 April 2021
Orbit: 870 x 974 km, 66.8° (Epoch: 09 May)

Event Time Altitude Azimuth Distance (km) Brightness Sun altitude
Rises 05:08:50 0° 319° (NW) 3,546 10.7 1.7°
Reaches altitude 10° 05:11:43 10° 330° (NNW) 2,585 10.1 2.1°
Maximum altitude 05:16:55 30° 30° (NNE) 1,546 9.8 2.9°
Drops below altitude 10° 05:22:01 10° 91° (E) 2,532 11.9 3.7°
Sets 05:24:48 0° 102° (ESE) 3,461 12.2 4.1°
